This is the latest recevied weather packets stored in our database for station/object VK3BYD-3. If no packets are shown the sender has not sent any weather packets the latest 10 day(s).
| Time | Temp. | Humidity | Pressure | Rain* | Wind** | Luminosity | Snow |
|---|---|---|---|---|---|---|---|
| 1778125826 | 11.67° C | 71% | 1021 hPa | 0 mm | - | - | - |
| 1778124926 | 11.11° C | 66% | 1021 hPa | 0 mm | - | - | - |
| 1778124026 | 11.67° C | 65% | 1020.9 hPa | 0 mm | - | - | - |
| 1778123126 | 11.67° C | 64% | 1020.8 hPa | 0 mm | - | - | - |
| 1778122224 | 11.67° C | 67% | 1020.6 hPa | 0 mm | - | - | - |
| 1778121323 | 12.22° C | 68% | 1020.7 hPa | 0 mm | - | - | - |
| 1778120424 | 11.67° C | 68% | 1020.9 hPa | 0 mm | - | - | - |
| 1778119522 | 12.22° C | 63% | 1020.9 hPa | 0 mm | - | - | - |
| 1778118621 | 11.67° C | 67% | 1021 hPa | 0 mm | - | - | - |
| 1778117722 | 11.11° C | 67% | 1021.1 hPa | 0 mm | - | - | - |
| 1778116821 | 11.11° C | 70% | 1020.9 hPa | 0 mm | - | - | - |
| 1778115922 | 10.56° C | 73% | 1020.9 hPa | 0 mm | - | - | - |
| 1778115021 | 10° C | 71% | 1020.9 hPa | 0 mm | - | - | - |
| 1778114122 | 10° C | 74% | 1020.6 hPa | 0 mm | - | - | - |
| 1778113220 | 9.44° C | 78% | 1020.6 hPa | 0 mm | - | - | - |
| 1778112317 | 9.44° C | 75% | 1020.5 hPa | 0 mm | - | - | - |
| 1778111417 | 8.89° C | 81% | 1020.5 hPa | 0 mm | - | - | - |
| 1778110518 | 8.33° C | 79% | 1020.6 hPa | 0 mm | - | - | - |
| 1778109615 | 7.22° C | 83% | 1020.7 hPa | 0 mm | - | - | - |
| 1778108715 | 6.67° C | 84% | 1020.5 hPa | 0 mm | - | - | - |
| 1778107813 | 6.67° C | 84% | 1020.3 hPa | 0 mm | - | - | - |
| 1778106913 | 6.67° C | 83% | 1019.9 hPa | 0 mm | - | - | - |
| 1778106013 | 6.67° C | 84% | 1019.8 hPa | 0 mm | - | - | - |
| 1778105109 | 5.56° C | 86% | 1019.6 hPa | 0 mm | - | - | - |
| 1778104207 | 4.44° C | 89% | 1019.4 hPa | 0 mm | - | - | - |
* Rain latest hour (hover to see other rain measurements)
** Current wind speed in m/s (hover to see current wind gust speed)